GAPXJ EGSU-EGCB

Flight info

Callsign GAPXJ
Flight time N/A
Altitude 8000
Route TNT
Aircraft PA24/L-VGD/A

Departure

Time 2026-04-11 10:47
Airport Duxford Aerodrome (EGSU)

Arrival

Time N/A
Airport Manchester Barton Aerodrome (EGCB)
Time Latitude Longitude Altitude Speed Heading
2026-04-11 10:23 52.09465 0.13414 125 ft 0 kts 165°
2026-04-11 10:44 52.09464 0.13415 121 ft 2 kts 165°
2026-04-11 10:44 52.09449 0.13464 122 ft 10 kts 99°
2026-04-11 10:44 52.09454 0.13545 123 ft 10 kts 77°
2026-04-11 10:45 52.09472 0.13662 123 ft 14 kts 75°
2026-04-11 10:45 52.09474 0.13759 122 ft 9 kts 127°
2026-04-11 10:45 52.09426 0.13849 123 ft 2 kts 125°
2026-04-11 10:45 52.09417 0.13867 124 ft 5 kts 129°
2026-04-11 10:46 52.09373 0.13921 123 ft 8 kts 170°
2026-04-11 10:46 52.09331 0.13874 123 ft 0 kts 234°
2026-04-11 10:46 52.09328 0.13868 123 ft 1 kts 236°
2026-04-11 10:46 52.09237 0.13621 125 ft 59 kts 234°
2026-04-11 10:47 52.08939 0.13035 327 ft 70 kts 236°
2026-04-11 10:47 52.08655 0.12380 560 ft 74 kts 236°
2026-04-11 10:47 52.08365 0.11703 784 ft 71 kts 237°
2026-04-11 10:47 52.08098 0.11034 979 ft 71 kts 240°
2026-04-11 10:48 52.07839 0.10321 1275 ft 74 kts 237°
2026-04-11 10:48 52.07450 0.09740 1566 ft 80 kts 233°
2026-04-11 10:48 52.07227 0.08922 1907 ft 78 kts 242°
2026-04-11 10:48 52.06934 0.08151 2177 ft 83 kts 237°
2026-04-11 10:49 52.06626 0.07373 2512 ft 80 kts 238°
2026-04-11 10:49 52.06338 0.06591 2794 ft 83 kts 240°
2026-04-11 10:49 52.06030 0.05827 3123 ft 79 kts 239°
2026-04-11 10:49 52.05734 0.05054 3393 ft 82 kts 233°
2026-04-11 10:50 52.05431 0.04279 3684 ft 83 kts 252°
2026-04-11 10:50 52.05481 0.03324 3946 ft 88 kts 290°
2026-04-11 10:50 52.05806 0.02497 4280 ft 88 kts 295°
2026-04-11 10:50 52.06172 0.01646 4493 ft 93 kts 296°
2026-04-11 10:51 52.06544 0.00795 4780 ft 92 kts 296°
2026-04-11 10:51 52.06883 -0.00099 5380 ft 91 kts 290°
2026-04-11 10:51 52.07228 -0.00941 5662 ft 90 kts 286°
2026-04-11 10:51 52.07562 -0.01796 5931 ft 88 kts 283°
2026-04-11 10:52 52.07859 -0.02664 6147 ft 88 kts 278°
2026-04-11 10:52 52.08107 -0.03563 6373 ft 85 kts 273°
2026-04-11 10:52 52.08303 -0.04470 6570 ft 86 kts 269°
2026-04-11 10:52 52.08467 -0.05400 6787 ft 85 kts 265°
2026-04-11 10:53 52.08590 -0.06327 6963 ft 86 kts 262°
2026-04-11 10:53 52.08677 -0.07282 7160 ft 84 kts 259°
2026-04-11 10:53 52.08735 -0.08236 7329 ft 84 kts 256°
2026-04-11 10:53 52.08773 -0.09169 7512 ft 83 kts 254°
2026-04-11 10:54 52.08794 -0.10108 7671 ft 84 kts 253°
2026-04-11 10:54 52.08804 -0.11053 7846 ft 84 kts 252°
2026-04-11 10:54 52.08793 -0.12101 7861 ft 98 kts 253°
2026-04-11 10:54 52.08770 -0.13269 7859 ft 111 kts 254°
2026-04-11 10:55 52.08748 -0.14588 7798 ft 122 kts 256°
2026-04-11 10:55 52.08745 -0.16001 7775 ft 126 kts 258°
2026-04-11 10:55 52.08778 -0.17436 7782 ft 128 kts 260°
2026-04-11 10:55 52.08847 -0.18883 7788 ft 129 kts 262°
2026-04-11 10:56 52.08948 -0.20303 7784 ft 124 kts 263°
2026-04-11 10:56 52.09074 -0.21660 7774 ft 120 kts 264°
2026-04-11 10:56 52.09217 -0.22981 7783 ft 117 kts 265°
2026-04-11 10:56 52.09372 -0.24277 7787 ft 117 kts 265°
2026-04-11 10:57 52.09530 -0.25582 7789 ft 119 kts 265°
2026-04-11 10:57 52.09689 -0.26886 7789 ft 117 kts 265°
2026-04-11 10:57 52.09848 -0.28173 7784 ft 115 kts 265°
2026-04-11 10:57 52.10002 -0.29443 7777 ft 114 kts 265°
2026-04-11 10:58 52.10148 -0.30727 7627 ft 119 kts 265°
2026-04-11 10:58 52.10279 -0.32058 7521 ft 118 kts 265°
2026-04-11 10:58 52.10401 -0.33384 7372 ft 121 kts 265°
2026-04-11 10:58 52.10512 -0.34772 7192 ft 126 kts 265°
2026-04-11 10:59 52.10622 -0.36208 6998 ft 129 kts 266°
2026-04-11 10:59 52.10732 -0.37663 6785 ft 131 kts 267°
2026-04-11 10:59 52.10842 -0.39121 6600 ft 131 kts 268°
2026-04-11 10:59 52.10965 -0.40591 6398 ft 131 kts 269°
2026-04-11 11:00 52.11095 -0.42045 6174 ft 127 kts 270°
2026-04-11 11:00 52.11224 -0.43444 5904 ft 125 kts 271°
2026-04-11 11:00 52.11354 -0.44850 5606 ft 126 kts 272°
2026-04-11 11:00 52.11495 -0.46258 5358 ft 124 kts 274°
2026-04-11 11:01 52.11642 -0.47632 5107 ft 123 kts 274°
2026-04-11 11:01 52.11790 -0.49004 4885 ft 122 kts 274°
2026-04-11 11:01 52.11938 -0.50369 4639 ft 123 kts 276°
2026-04-11 11:01 52.12096 -0.51735 4436 ft 122 kts 276°
2026-04-11 11:02 52.12199 -0.52619 4326 ft 119 kts 276°
2026-04-11 11:02 52.12414 -0.54421 3996 ft 122 kts 276°
2026-04-11 11:02 52.12519 -0.55311 3904 ft 119 kts 276°
2026-04-11 11:02 52.12668 -0.56632 3739 ft 118 kts 276°
2026-04-11 11:03 52.12806 -0.57915 3564 ft 112 kts 275°
2026-04-11 11:03 52.12600 -0.59120 3266 ft 117 kts 232°
2026-04-11 11:03 52.11957 -0.59911 3062 ft 118 kts 220°
2026-04-11 11:03 52.11273 -0.60642 2840 ft 118 kts 220°
2026-04-11 11:04 52.10588 -0.61383 2607 ft 118 kts 219°
2026-04-11 11:04 52.09884 -0.62090 2373 ft 120 kts 215°
2026-04-11 11:04 52.09157 -0.62741 2188 ft 116 kts 213°
2026-04-11 11:04 52.08444 -0.63186 2067 ft 111 kts 195°
2026-04-11 11:05 52.07677 -0.62948 1950 ft 122 kts 152°
2026-04-11 11:05 52.07195 -0.61715 1811 ft 139 kts 119°
2026-04-11 11:05 52.06829 -0.60267 1824 ft 138 kts 121°
2026-04-11 11:05 52.06472 -0.58821 1766 ft 141 kts 121°
2026-04-11 11:06 52.06002 -0.57456 1726 ft 136 kts 140°
2026-04-11 11:06 52.05192 -0.57010 1638 ft 119 kts 198°
2026-04-11 11:06 52.04665 -0.57754 1406 ft 100 kts 255°
2026-04-11 11:06 52.04818 -0.58724 1257 ft 93 kts 316°
2026-04-11 11:07 52.05493 -0.58995 1113 ft 99 kts 343°
2026-04-11 11:07 52.06136 -0.58908 1084 ft 98 kts 14°
2026-04-11 11:07 52.06731 -0.58331 1117 ft 104 kts 23°
2026-04-11 11:07 52.07338 -0.57668 1170 ft 107 kts 31°
2026-04-11 11:08 52.07955 -0.56921 1212 ft 111 kts 30°
2026-04-11 11:08 52.08606 -0.56183 1167 ft 114 kts 31°
2026-04-11 11:08 52.09310 -0.55638 1038 ft 115 kts 348°
2026-04-11 11:08 52.09897 -0.56274 994 ft 95 kts 304°
2026-04-11 11:09 52.10296 -0.57119 866 ft 92 kts 290°
2026-04-11 11:09 52.10577 -0.57999 796 ft 86 kts 279°
2026-04-11 11:09 52.10268 -0.58719 676 ft 88 kts 201°
2026-04-11 11:09 52.09744 -0.59074 663 ft 79 kts 223°
2026-04-11 11:10 52.09308 -0.59581 608 ft 74 kts 214°
2026-04-11 11:10 52.08853 -0.60022 604 ft 79 kts 219°
2026-04-11 11:10 52.08385 -0.60496 529 ft 78 kts 218°
2026-04-11 11:10 52.07935 -0.60948 409 ft 73 kts 220°
2026-04-11 11:11 52.07580 -0.61297 363 ft 40 kts 210°
2026-04-11 11:11 52.07433 -0.61447 361 ft 16 kts 214°
2026-04-11 11:11 52.07357 -0.61538 362 ft 12 kts 251°
2026-04-11 11:11 52.07412 -0.61621 363 ft 13 kts 329°
2026-04-11 11:12 52.07475 -0.61707 361 ft 12 kts 299°
2026-04-11 11:12 52.07507 -0.61785 361 ft 8 kts 321°
2026-04-11 11:12 52.07532 -0.61821 361 ft 0 kts 352°